User: anonymous   Login
Location: Unspecified
(0.0000°N, 0.0000°E)
Time: 12:23:45
(UTC+02:00)
Language:

CZ-2C R/B - Orbit

View from above orbital plane
View from above orbital plane
View from above satellite
View from above satellite

Ground track
Ground track

The orbit data is extracted from the following two-line orbital elements,

1 28480U 04046B   15245.95451131 +.00000032 +00000-0 +27722-4 0  9991
2 28480 098.1514 014.4047 0142032 353.4665 111.7272 14.25525597561149
Epoch (UTC): 02 September 2015 22:54:29
Eccentricity: 0.0142032
inclination: 98.1514°
perigee height: 704 km
apogee height: 909 km
right ascension of ascending node: 14.4047°
argument of perigee: 353.4665°
revolutions per day: 14.25525597
mean anomaly at epoch: 111.7272°
orbit number at epoch: 56114

The dashed part of the orbit path shows where the satellite is in the earth's shadow,  

DLR